DW4719 Vilanova I la Geltru ES current weather conditions

sailwx.info

Wind from 359

Air temperature 5.6° C
Dewpoint -3.8° C

Last reported at 2015-Feb-28 04:50 UTC.
Time now 2015-Feb-28 05:28 UTC

Location: N 41°13' E 001°44'.
View on Google Maps.

See reports from other nearby stations

  
Tides and Currents Weather Stations Pressure Air Temp Water Temp Dewpoint Dewpoint Depression Visibility Wind Speed Wind Dir Waves Ship Positions
date/time (UTC)wind fromknots sea level pressurealtimeterstation pressurevisibilityair tempwater tempwave heightnotes
2015-Feb-28 04:50 359 5.6
2015-Feb-28 04:45 359 5.6
2015-Feb-28 04:40 359 5.6
2015-Feb-28 04:36 357 5.6
2015-Feb-28 04:30 359 6.1
2015-Feb-28 04:25 359 6.1
2015-Feb-28 04:20 357 6.1
2015-Feb-28 04:15 359 6.7
2015-Feb-28 04:10 359 6.7
2015-Feb-28 04:06 360 6.7
2015-Feb-28 04:00 329 6.7
2015-Feb-28 03:55 346 6.7
2015-Feb-28 03:50 360 6.7
2015-Feb-28 03:45 359 6.1
2015-Feb-28 03:39 352 6.7
2015-Feb-28 03:35 349 6.7
2015-Feb-28 03:30 349 6.7
2015-Feb-28 03:26 349 6.7
2015-Feb-28 03:20 349 6.7
2015-Feb-28 03:15 349 6.7
2015-Feb-28 03:09 349 7.2
2015-Feb-28 03:03 349 7.2
2015-Feb-28 03:00 349 7.2
2015-Feb-28 02:55 349 7.2
2015-Feb-28 02:50 349 7.2
2015-Feb-28 02:45 349 7.2
2015-Feb-28 02:39 349 7.2
2015-Feb-28 02:35 349 7.2
2015-Feb-28 02:30 349 7.2
2015-Feb-28 02:25 349 7.2
2015-Feb-28 02:20 349 7.2
2015-Feb-28 02:15 349 7.2
2015-Feb-28 02:09 349 7.8
2015-Feb-28 02:05 349 7.8
2015-Feb-28 02:00 349 7.8
2015-Feb-28 01:55 349 7.8
2015-Feb-28 01:50 347 8.3
2015-Feb-28 01:45 003 8.3
2015-Feb-28 01:41 360 8.3
2015-Feb-28 01:35 006 8.3
2015-Feb-28 01:30 006 8.3
2015-Feb-28 01:25 007 8.3
2015-Feb-28 01:20 001 8.3
2015-Feb-28 01:15 018 8.3
2015-Feb-28 01:11 272 8.9
2015-Feb-28 01:05 261 8.3
2015-Feb-28 01:00 360 8.3
2015-Feb-28 00:55 357 8.3
2015-Feb-28 00:50 325 7.8
2015-Feb-28 00:44 323 7.8
2015-Feb-28 00:40 323 8.3
2015-Feb-28 00:35 323 8.3
2015-Feb-28 00:30 302 8.3
2015-Feb-28 00:25 302 8.9
2015-Feb-28 00:20 277 8.9
2015-Feb-28 00:14 023 8.3
2015-Feb-28 00:10 023 8.3
2015-Feb-28 00:04 054 7.8
2015-Feb-28 00:00 054 7.8
2015-Feb-27 23:55 052 7.2
2015-Feb-27 23:50 052 7.2
2015-Feb-27 23:44 052 7.2
2015-Feb-27 23:40 052 7.2
2015-Feb-27 23:35 052 7.2
2015-Feb-27 23:30 052 7.2
2015-Feb-27 23:25 052 7.2
2015-Feb-27 23:20 052 7.2
2015-Feb-27 23:14 052 7.2
2015-Feb-27 23:10 052 7.2
2015-Feb-27 23:05 052 7.2
2015-Feb-27 23:00 052 7.2
2015-Feb-27 22:55 052 7.2
2015-Feb-27 22:50 052 7.2
2015-Feb-27 22:46 052 7.8
2015-Feb-27 22:40 052 7.8
2015-Feb-27 22:35 052 7.8
2015-Feb-27 22:30 052 7.8
2015-Feb-27 22:25 052 7.8
2015-Feb-27 22:20 052 8.3
2015-Feb-27 22:16 052 8.3
2015-Feb-27 22:10 049 8.9
2015-Feb-27 22:05 284 8.9
2015-Feb-27 22:00 284 9.4
2015-Feb-27 21:55 282 10.0
2015-Feb-27 21:49 282 10.0
2015-Feb-27 21:45 268 10.0
2015-Feb-27 21:40 263 10.0
2015-Feb-27 21:35 263 10.0
2015-Feb-27 21:30 263 10.6
2015-Feb-27 21:25 263 10.6
2015-Feb-27 21:20 263 10.6
2015-Feb-27 21:15 263 10.6
2015-Feb-27 21:10 248 10.6
2015-Feb-27 21:04 306 10.6
2015-Feb-27 21:00 306 10.6
2015-Feb-27 20:55 306 10.6
2015-Feb-27 20:49 308 10.6
2015-Feb-27 20:45 308 10.6
2015-Feb-27 20:40 217 0 11.1
2015-Feb-27 20:35 260 2 11.1
2015-Feb-27 20:30 272 2 11.1
2015-Feb-27 20:25 280 1 11.1
2015-Feb-27 20:19 256 2 11.7
2015-Feb-27 20:16 251 2 11.7
2015-Feb-27 20:10 272 0 11.7
2015-Feb-27 20:04 233 0 11.7
2015-Feb-27 20:00 203 0 11.7
2015-Feb-27 19:55 212 0 12.2
2015-Feb-27 19:51 234 12.2
2015-Feb-27 19:45 243 0 12.2
2015-Feb-27 19:40 209 0 12.2
2015-Feb-27 19:35 222 1 12.2
2015-Feb-27 19:30 230 0 12.2
2015-Feb-27 19:25 202 0 12.2
2015-Feb-27 19:21 212 0 11.7
2015-Feb-27 19:15 216 1 11.7
2015-Feb-27 19:10 184 0 11.7
2015-Feb-27 19:04 220 0 11.7
2015-Feb-27 19:00 216 1 11.7
2015-Feb-27 18:55 210 1 12.2
2015-Feb-27 18:50 224 0 12.2
2015-Feb-27 18:45 191 0 12.2
2015-Feb-27 18:40 202 12.2
2015-Feb-27 18:35 202 11.7
2015-Feb-27 18:30 199 0 11.7
2015-Feb-27 18:25 199 0 12.2
2015-Feb-27 18:20 193 0 12.2
2015-Feb-27 18:15 191 1 12.2
2015-Feb-27 18:10 191 0 12.2
2015-Feb-27 18:05 209 12.2
2015-Feb-27 18:00 206 0 12.2
2015-Feb-27 17:54 168 0 12.2
2015-Feb-27 17:50 178 12.2
2015-Feb-27 17:45 196 12.2
2015-Feb-27 17:40 169 12.2
2015-Feb-27 17:35 191 0 12.2
2015-Feb-27 17:30 196 0 12.2
2015-Feb-27 17:24 179 12.2
2015-Feb-27 17:20 181 0 12.8
2015-Feb-27 17:15 172 1 12.2
2015-Feb-27 17:10 145 1 12.2
2015-Feb-27 17:05 158 2 12.2
2015-Feb-27 17:00 161 2 12.2
2015-Feb-27 16:56 137 1 12.2
2015-Feb-27 16:50 143 2 12.2
2015-Feb-27 16:45 157 4 12.2
2015-Feb-27 16:40 131 3 12.2
2015-Feb-27 16:35 119 1 12.2
2015-Feb-27 16:29 143 0 12.2
2015-Feb-27 16:25 119 2 12.2
2015-Feb-27 16:20 126 3 12.2
2015-Feb-27 16:15 123 4 12.2
2015-Feb-27 16:10 138 4 12.2
2015-Feb-27 16:05 130 2 12.2
2015-Feb-27 15:59 167 3 12.2
2015-Feb-27 15:56 157 5 12.2
2015-Feb-27 15:50 131 5 12.2
2015-Feb-27 15:45 162 6 12.2
2015-Feb-27 15:40 141 6 11.7
2015-Feb-27 15:35 162 6 11.7
2015-Feb-27 15:31 113 6 11.7
2015-Feb-27 15:25 116 8 11.7
2015-Feb-27 15:20 143 8 12.2
2015-Feb-27 15:15 136 8 12.2
2015-Feb-27 15:10 100 9 12.2
2015-Feb-27 15:05 110 9 12.2
2015-Feb-27 15:01 131 7 12.2
2015-Feb-27 14:55 113 7 12.8
2015-Feb-27 14:50 127 7 12.8
2015-Feb-27 14:45 116 7 12.8
2015-Feb-27 14:40 106 8 12.8
2015-Feb-27 14:35 143 9 12.2
2015-Feb-27 14:30 107 9 12.8
2015-Feb-27 14:25 109 8 12.8
2015-Feb-27 14:20 076 9 13.3
2015-Feb-27 14:15 113 9 13.9
2015-Feb-27 14:10 100 7 15.0
2015-Feb-27 14:04 096 4 16.7
2015-Feb-27 14:00 030 4 17.2
2015-Feb-27 13:55 360 6 16.7
2015-Feb-27 13:50 051 6 16.7
2015-Feb-27 13:45 330 6 16.7
2015-Feb-27 13:40 282 5 16.7
2015-Feb-27 13:34 288 4 17.2
2015-Feb-27 13:31 309 5 16.7
2015-Feb-27 13:25 045 6 16.7
2015-Feb-27 13:20 329 6 16.7
2015-Feb-27 13:15 028 5 16.7
2015-Feb-27 13:10 359 5 16.7
2015-Feb-27 13:06 289 6 16.7
2015-Feb-27 13:00 248 6 16.7
2015-Feb-27 12:55 347 8 16.7
2015-Feb-27 12:50 301 9 16.7
2015-Feb-27 12:45 343 7 16.7
2015-Feb-27 12:40 024 7 16.7
2015-Feb-27 12:36 028 7 16.7
2015-Feb-27 12:30 312 6 16.7
2015-Feb-27 12:25 316 7 16.7
2015-Feb-27 12:20 294 9 16.7
2015-Feb-27 12:15 305 10 16.7
2015-Feb-27 12:10 330 9 16.1
2015-Feb-27 12:05 320 6 16.7
2015-Feb-27 12:00 322 6 16.7
2015-Feb-27 11:55 360 6 16.7
2015-Feb-27 11:50 325 7 16.7
2015-Feb-27 11:45 319 6 16.7
2015-Feb-27 11:40 243 4 16.7
2015-Feb-27 11:35 308 6 16.7
2015-Feb-27 11:30 333 6 16.7
2015-Feb-27 11:25 312 7 16.7
2015-Feb-27 11:20 083 7 16.7
2015-Feb-27 11:15 360 7 16.7
2015-Feb-27 11:11 001 7 16.7
2015-Feb-27 11:05 041 8 16.7
2015-Feb-27 11:00 325 10 16.1
2015-Feb-27 10:55 330 9 16.1
2015-Feb-27 10:50 267 9 16.1
2015-Feb-27 10:45 311 8 16.1
2015-Feb-27 10:40 357 5 16.7
2015-Feb-27 10:35 291 5 16.7
2015-Feb-27 10:30 018 5 16.1
2015-Feb-27 10:25 281 3 16.1
2015-Feb-27 10:20 337 3 15.6
2015-Feb-27 10:15 308 4 15.0
2015-Feb-27 10:10 332 2 14.4
2015-Feb-27 10:05 350 13.9
2015-Feb-27 10:00 309 13.3
2015-Feb-27 09:55 309 13.3
2015-Feb-27 09:50 309 12.8
2015-Feb-27 09:44 323 12.8
2015-Feb-27 09:40 323 12.8
2015-Feb-27 09:35 360 12.8
2015-Feb-27 09:30 360 12.8
2015-Feb-27 09:25 360 12.8
2015-Feb-27 09:20 360 12.8
2015-Feb-27 09:14 346 12.8
2015-Feb-27 09:10 344 12.8
2015-Feb-27 09:05 346 12.8
2015-Feb-27 09:00 346 12.8
2015-Feb-27 08:55 347 12.8
2015-Feb-27 08:50 028 0 12.8
2015-Feb-27 08:46 031 1 12.2
2015-Feb-27 08:40 319 2 12.2
2015-Feb-27 08:35 328 1 12.2
2015-Feb-27 08:30 323 12.2
2015-Feb-27 08:25 326 12.2
2015-Feb-27 08:20 323 12.2
2015-Feb-27 08:16 323 12.2
2015-Feb-27 08:10 323 12.2
2015-Feb-27 08:05 323 0 12.2
2015-Feb-27 08:00 322 0 12.2
2015-Feb-27 07:55 280 12.2
2015-Feb-27 07:50 280 11.7
2015-Feb-27 07:46 311 11.1
2015-Feb-27 07:40 025 11.1
2015-Feb-27 07:35 032 10.6
2015-Feb-27 07:30 004 10.6
2015-Feb-27 07:25 018 10.0
2015-Feb-27 07:20 018 10.0
2015-Feb-27 07:15 040 10.0
2015-Feb-27 07:10 040 10.0
2015-Feb-27 07:05 040 10.0
2015-Feb-27 07:00 040 10.0
2015-Feb-27 06:55 040 10.0
2015-Feb-27 06:50 040 10.0
2015-Feb-27 06:45 040 10.6
2015-Feb-27 06:40 038 10.6
2015-Feb-27 06:35 032 10.6
2015-Feb-27 06:30 032 10.6
2015-Feb-27 06:25 032 10.6
2015-Feb-27 06:19 032 10.0
2015-Feb-27 06:15 032 10.6
2015-Feb-27 06:10 032 10.6
2015-Feb-27 06:05 032 10.6
2015-Feb-27 06:00 032 10.6
2015-Feb-27 05:55 032 10.6
2015-Feb-27 05:49 045 10.0
2015-Feb-27 05:45 045 10.0
2015-Feb-27 05:40 045 10.0
2015-Feb-27 05:35 045 10.0
2015-Feb-27 05:30 045 10.0
2015-Feb-27 05:25 045 10.0
2015-Feb-27 05:21 045 10.0
2015-Feb-27 05:15 045 10.0
2015-Feb-27 05:10 045 10.6
2015-Feb-27 05:05 045 10.6
2015-Feb-27 05:00 045 10.6
2015-Feb-27 04:55 045 10.6
2015-Feb-27 04:51 045 10.6
2015-Feb-27 04:45 045 10.6
2015-Feb-27 04:40 056 10.6
2015-Feb-27 04:35 056 10.6
2015-Feb-27 04:30 056 10.6
2015-Feb-27 04:25 056 11.1
2015-Feb-27 04:20 056 11.1
2015-Feb-27 04:15 056 11.1
2015-Feb-27 04:10 056 11.1
2015-Feb-27 04:05 056 11.1
2015-Feb-27 04:00 056 11.1
2015-Feb-27 03:54 056 11.1
2015-Feb-27 03:50 056 11.1
2015-Feb-27 03:45 056 11.1
2015-Feb-27 03:40 056 11.7
2015-Feb-27 03:35 056 11.7
2015-Feb-27 03:30 056 11.7
2015-Feb-27 03:25 056 11.7
2015-Feb-27 03:20 056 11.7
2015-Feb-27 03:15 056 11.7
2015-Feb-27 03:10 056 11.7
2015-Feb-27 03:05 056 11.7
2015-Feb-27 03:00 056 11.7
2015-Feb-27 02:54 056 12.2
2015-Feb-27 02:50 056 12.2
2015-Feb-27 02:45 056 12.2
2015-Feb-27 02:40 056 12.2
2015-Feb-27 02:35 056 12.2
2015-Feb-27 02:30 056 12.2
2015-Feb-27 02:24 056 12.2
2015-Feb-27 02:20 056 12.2
2015-Feb-27 02:15 056 12.2
2015-Feb-27 02:10 056 12.2
2015-Feb-27 02:05 056 12.2
2015-Feb-27 02:00 056 12.2
2015-Feb-27 01:54 056 11.7
2015-Feb-27 01:51 056 11.7
2015-Feb-27 01:45 056 11.7
2015-Feb-27 01:40 056 11.7
2015-Feb-27 01:35 056 11.7
2015-Feb-27 01:30 056 11.7
2015-Feb-27 01:26 056 11.7
2015-Feb-27 01:20 056 11.7
2015-Feb-27 01:15 056 11.7
2015-Feb-27 01:10 056 11.7
2015-Feb-27 01:05 056 11.7
2015-Feb-27 01:00 056 11.7
2015-Feb-27 00:56 056 11.7
2015-Feb-27 00:50 056 11.7
2015-Feb-27 00:45 056 11.7
2015-Feb-27 00:40 056 11.7
2015-Feb-27 00:35 056 11.7
2015-Feb-27 00:30 056 11.7
2015-Feb-27 00:26 056 11.7
2015-Feb-27 00:20 056 11.7
2015-Feb-27 00:15 056 11.7
2015-Feb-27 00:10 056 11.7
2015-Feb-27 00:05 056 11.1
2015-Feb-27 00:00 056 11.1
2015-Feb-26 23:55 056 11.1
2015-Feb-26 23:50 056 11.1
2015-Feb-26 23:45 056 11.1
2015-Feb-26 23:40 055 11.1
2015-Feb-26 23:35 055 11.1
2015-Feb-26 23:30 054 11.1
2015-Feb-26 23:25 052 11.1
2015-Feb-26 23:20 052 11.1
2015-Feb-26 23:15 051 11.1
2015-Feb-26 23:10 051 10.6
2015-Feb-26 23:05 051 11.1
2015-Feb-26 23:00 049 11.1
2015-Feb-26 22:55 049 11.1
2015-Feb-26 22:50 051 11.1
2015-Feb-26 22:45 051 11.1
2015-Feb-26 22:40 049 11.1
2015-Feb-26 22:35 051 11.1
2015-Feb-26 22:29 051 11.1
2015-Feb-26 22:25 049 11.1
2015-Feb-26 22:20 051 11.1
2015-Feb-26 22:15 049 11.1
2015-Feb-26 22:10 049 11.1
2015-Feb-26 22:05 340 11.1
2015-Feb-26 21:59 339 11.1
2015-Feb-26 21:55 339 11.1
2015-Feb-26 21:50 339 11.1
2015-Feb-26 21:45 025 11.1
2015-Feb-26 21:40 025 11.1
2015-Feb-26 21:35 007 11.1
2015-Feb-26 21:31 004 11.7
2015-Feb-26 21:25 052 11.1
2015-Feb-26 21:20 052 11.7
2015-Feb-26 21:15 049 11.7
2015-Feb-26 21:10 049 11.7
2015-Feb-26 21:05 049 11.7
2015-Feb-26 21:01 049 12.2
2015-Feb-26 20:55 049 12.2
2015-Feb-26 20:51 052 12.2
2015-Feb-26 20:45 047 12.2
2015-Feb-26 20:40 047 12.2
2015-Feb-26 20:35 047 12.2
2015-Feb-26 20:30 047 12.2
2015-Feb-26 20:25 047 12.8
2015-Feb-26 20:20 047 12.8
2015-Feb-26 20:15 047 12.8
2015-Feb-26 20:10 045 12.8
2015-Feb-26 20:04 045 12.8
2015-Feb-26 20:00 045 12.8
2015-Feb-26 19:55 045 12.8
2015-Feb-26 19:50 045 12.8
2015-Feb-26 19:45 080 12.8
2015-Feb-26 19:40 080 12.8
2015-Feb-26 19:34 080 12.8
2015-Feb-26 19:30 080 13.3
2015-Feb-26 19:25 080 13.3
2015-Feb-26 19:20 080 13.3
2015-Feb-26 19:15 080 13.3
2015-Feb-26 19:10 080 13.3
2015-Feb-26 19:06 080 13.3
2015-Feb-26 19:00 082 13.3
2015-Feb-26 18:55 082 13.3
2015-Feb-26 18:50 080 13.3
2015-Feb-26 18:45 082 13.3
2015-Feb-26 18:40 080 13.3
2015-Feb-26 18:35 082 13.9
2015-Feb-26 18:30 078 13.9
2015-Feb-26 18:25 076 13.9
2015-Feb-26 18:20 090 13.9
2015-Feb-26 18:15 083 13.9
2015-Feb-26 18:10 083 13.9
2015-Feb-26 18:05 082 13.9
2015-Feb-26 18:00 065 13.9
2015-Feb-26 17:55 065 0 13.9
2015-Feb-26 17:50 092 13.9
2015-Feb-26 17:45 079 13.9
2015-Feb-26 17:40 079 13.9
2015-Feb-26 17:35 095 13.9
2015-Feb-26 17:30 090 0 13.9
2015-Feb-26 17:25 092 0 13.9
2015-Feb-26 17:20 104 13.9
2015-Feb-26 17:15 130 13.9
2015-Feb-26 17:09 092 13.9
2015-Feb-26 17:05 089 13.9
2015-Feb-26 17:00 097 14.4
2015-Feb-26 16:55 107 14.4
2015-Feb-26 16:50 130 14.4
2015-Feb-26 16:45 130 14.4
2015-Feb-26 16:41 126 14.4
2015-Feb-26 16:35 126 14.4
2015-Feb-26 16:30 106 14.4
2015-Feb-26 16:25 113 14.4
2015-Feb-26 16:20 114 14.4
2015-Feb-26 16:15 127 0 14.4
2015-Feb-26 16:11 126 0 14.4
2015-Feb-26 16:05 136 15.0
2015-Feb-26 15:59 126 14.4
2015-Feb-26 15:55 126 14.4
2015-Feb-26 15:50 126 14.4
2015-Feb-26 15:45 126 14.4
2015-Feb-26 15:40 126 14.4
2015-Feb-26 15:35 126 14.4
2015-Feb-26 15:30 121 14.4
2015-Feb-26 15:25 143 0 14.4
2015-Feb-26 15:20 134 0 15.0
2015-Feb-26 15:15 131 15.0
2015-Feb-26 15:10 128 14.4
2015-Feb-26 15:05 116 14.4
2015-Feb-26 15:00 150 14.4
2015-Feb-26 14:55 107 14.4
2015-Feb-26 14:50 138 0 14.4
2015-Feb-26 14:45 116 0 14.4
2015-Feb-26 14:40 099 1 14.4
2015-Feb-26 14:35 116 2 14.4
2015-Feb-26 14:30 114 1 14.4
2015-Feb-26 14:25 097 1 14.4
2015-Feb-26 14:20 133 1 14.4
2015-Feb-26 14:15 128 0 14.4
2015-Feb-26 14:10 141 0 14.4
2015-Feb-26 14:05 121 0 14.4
2015-Feb-26 14:00 154 0 14.4
2015-Feb-26 13:55 124 0 14.4
2015-Feb-26 13:50 121 15.0
2015-Feb-26 13:45 127 15.0
2015-Feb-26 13:40 095 0 15.0
2015-Feb-26 13:34 157 15.0
2015-Feb-26 13:30 164 14.4
2015-Feb-26 13:25 099 1 14.4
2015-Feb-26 13:20 086 1 14.4
2015-Feb-26 13:15 133 1 14.4
2015-Feb-26 13:10 106 1 14.4
2015-Feb-26 13:06 130 0 14.4
2015-Feb-26 13:00 117 0 14.4
2015-Feb-26 12:55 120 0 14.4
2015-Feb-26 12:50 138 1 15.0
2015-Feb-26 12:45 165 1 15.0
2015-Feb-26 12:40 143 0 15.0
2015-Feb-26 12:36 138 0 15.6
2015-Feb-26 12:30 164 15.6
2015-Feb-26 12:25 158 0 15.6
2015-Feb-26 12:20 126 15.6
2015-Feb-26 12:15 109 0 15.6
2015-Feb-26 12:10 104 0 15.6
2015-Feb-26 12:06 136 15.6
2015-Feb-26 12:00 120 16.1
2015-Feb-26 11:55 162 16.1
2015-Feb-26 11:50 179 15.6
2015-Feb-26 11:45 184 15.6
2015-Feb-26 11:39 155 15.0
2015-Feb-26 11:35 157 15.0
2015-Feb-26 11:30 155 15.0
2015-Feb-26 11:25 157 15.0
2015-Feb-26 11:20 157 14.4
2015-Feb-26 11:15 158 15.0
2015-Feb-26 11:10 158 14.4
2015-Feb-26 11:05 158 15.0
2015-Feb-26 11:00 168 15.6
2015-Feb-26 10:55 168 15.6
2015-Feb-26 10:50 184 15.6
2015-Feb-26 10:45 184 15.6
2015-Feb-26 10:39 191 15.0
2015-Feb-26 10:35 191 15.0
2015-Feb-26 10:30 069 15.0
2015-Feb-26 10:25 064 14.4
2015-Feb-26 10:20 064 14.4
2015-Feb-26 10:15 065 13.9
2015-Feb-26 10:09 058 13.3
2015-Feb-26 10:06 059 13.3
2015-Feb-26 10:00 059 13.3
2015-Feb-26 09:55 059 13.3
2015-Feb-26 09:50 054 13.3
2015-Feb-26 09:45 054 12.8
2015-Feb-26 09:41 054 12.8
2015-Feb-26 09:35 054 12.8
2015-Feb-26 09:30 054 12.8
2015-Feb-26 09:25 054 12.8
2015-Feb-26 09:20 055 12.2
2015-Feb-26 09:15 055 12.2
2015-Feb-26 09:11 055 12.2
2015-Feb-26 09:05 055 11.7
2015-Feb-26 09:00 054 11.1
2015-Feb-26 08:55 054 11.1
2015-Feb-26 08:50 066 11.1
2015-Feb-26 08:45 065 10.6
2015-Feb-26 08:40 065 10.6
2015-Feb-26 08:35 061 10.6
2015-Feb-26 08:30 035 10.0
2015-Feb-26 08:25 061 10.0
2015-Feb-26 08:20 056 10.0
2015-Feb-26 08:15 062 9.4
2015-Feb-26 08:10 062 9.4
2015-Feb-26 08:05 061 9.4
2015-Feb-26 08:00 054 9.4
2015-Feb-26 07:55 054 8.9
2015-Feb-26 07:50 047 8.9
2015-Feb-26 07:44 047 8.3
2015-Feb-26 07:40 047 8.3
2015-Feb-26 07:35 047 8.3
2015-Feb-26 07:30 045 7.8
2015-Feb-26 07:25 058 7.8
2015-Feb-26 07:20 054 7.8
2015-Feb-26 07:14 054 7.8
2015-Feb-26 07:10 054 7.8
2015-Feb-26 07:05 035 7.2
2015-Feb-26 07:00 035 7.2
2015-Feb-26 06:55 035 7.2
2015-Feb-26 06:50 035 7.2
2015-Feb-26 06:44 035 7.2
2015-Feb-26 06:40 047 7.2
2015-Feb-26 06:35 047 7.2
2015-Feb-26 06:30 047 7.2
2015-Feb-26 06:25 047 7.2
2015-Feb-26 06:20 048 7.8
2015-Feb-26 06:16 048 7.2
2015-Feb-26 06:10 048 7.2
2015-Feb-26 06:05 048 7.2
2015-Feb-26 06:00 048 6.7
2015-Feb-26 05:55 048 6.7
2015-Feb-26 05:50 048 7.2
2015-Feb-26 05:46 048 7.2
2015-Feb-26 05:40 048 7.2
2015-Feb-26 05:35 045 7.2
2015-Feb-26 05:30 040 7.2
2015-Feb-26 05:25 360 7.2
2015-Feb-26 05:20 360 7.2
2015-Feb-26 05:15 360 7.2
2015-Feb-26 05:10 360 7.2
2015-Feb-26 05:05 343 7.2
2015-Feb-26 05:00 343 7.2